Location: Unspecified
(0.0000°N, 0.0000°E)
Time: 02:01:22
(UTC+00:00)

CAPRICORN - Pass Details

Date: 29 October 2019
Orbit: 325 x 40040 km, 64.5° (Epoch: 16 April)

Event Time Altitude Azimuth Distance (km) Brightness Sun altitude
Rises 10:03:28 0° 107° (ESE) 26,764 ? 61.8°
Reaches altitude 10° 10:51:10 10° 97° (E) 32,704 ? 71.3°
Maximum altitude 15:32:42 56° 28° (NNE) 39,781 ? 31.7°
Drops below altitude 10° 19:20:35 10° 4° (N) 18,067 ? -23.5°
Sets 19:36:32 0° 12° (NNE) 15,255 ? -27.3°
